Find Yaogan 34-01

NORAD ID: 48340 Int'l Des: 2021-037 Owner: ZLZB Country: CN Constellation: yaogan operational
LEOCIRCULAR

实时位置

正在加载3D地球...

关于 Yaogan 34-01

正在加载描述...

即将过境

Passes for default location (London). Set your location on the main map for personalized predictions.

高度历史

Loading altitude history...

两行轨道根数

1 48340U 21037A 26136.31466733 -.00000195 00000-0 -17380-3 0 9992
2 48340 63.4037 228.2472 0084798 357.2763 2.7790 13.45467529247712
Epoch: May 16, 2026 • Age: 6 hours

当前状态

高度 1153.8 km
速度 7.25 km/s
星下点 -13.04°S, 28.11°W
发射日期 Apr 30, 2021
运行时间 5 years
类型 military

技术详情

分类 Payload
质量 500.00 kg
干质量 500.00 kg
总质量 500.00 kg
长度 0.50 m
直径 0.50 m
跨度 1.00 m
形状 Box + 2 Pan
制造商 DFHZ
阶段状态 In Orbit
所有者/国家 ZLZB/CN

Most Searched